Location: Centerville
(32.8776°N, 96.6203°W)
Time: 00:46:15
(UTC+00:00)

OAO 3 Rocket - Pass Details

Date: 17 June 2021
Orbit: 629 x 682 km, 35.0° (Epoch: 01 August)

Event Time Altitude Azimuth Distance (km) Brightness Sun altitude
Exits shadow 10:18:13 14° 213° (SSW) 1,765 4.8 -11.3°
Maximum altitude 10:21:44 35° 153° (SSE) 1,044 4.1 -10.7°
Drops below altitude 10° 10:26:07 10° 87° (E) 2,067 6.7 -10.0°
Sets 10:28:40 0° 79° (E) 2,991 7.9 -9.6°
